GONETS D1 8

导读 | 星芒AI

GONETS D1-8 是一颗俄罗斯的低轨道通信卫星,属于 Gonets 系列,主要用于提供中继通信服务。该卫星由俄罗斯航天局(Roscosmos)运营,支持数据传输和短消息服务,广泛应用于偏远地区通信。它于2018年发射,运行在近地轨道,是俄罗斯构建自主卫星通信系统的重要组成部分。

基本信息
目录编号:
27059
目录名称:
GONETS D1 8
国际标识:
2001-058E
轨道中心:
EARTH
卫星名称:
GONETS D1 8
卫星全名:
--
卫星状态:
在轨 (已飞行8706 天)
发射日期:
2001-12-28 UTC
国别 :
俄罗斯(独联体) (CIS)
星等 :
--
轨道信息
数据来源 国际轨道数据
星历时间: 2025-10-28T22:42:00+0800
16小时前
查看轨道信息
半长轴: 7794.692km
偏心率: 0.0002968
轨道倾角: 82.546°
近地点辐角 72.244°
升交点赤经 1.055°
平近点角 287.898°
近地点: 1414.243km
远地点: 1418.871km
周期: 114.145分钟
每日圈数: 12.615497
详细信息
使用方式:
暂无
2D轨道图
3D轨道图
轨道高度分析图
轨道倾角分析图
轨道综合分析图
查看轨道综合分析图